{"data":{"norad_id":59162,"epoch":"2026-09-20T21:38:22.383744Z","epoch_age_seconds":124088,"freshness":"FRESH","line1":"1 59162U 24044L   26263.90164796  .00001411  00000+0  60768-4 0  9995","line2":"2 59162  43.0035  84.3208 0001075 256.9917 103.0815 15.27583981143428","mean_motion":15.27583981,"eccentricity":0.0001075,"inclination_deg":43.0035,"raan_deg":84.3208,"arg_perigee_deg":256.9917,"mean_anomaly_deg":103.0815,"bstar":6.0768e-5,"rev_number":14342,"period_min":94.266503047337,"perigee_km":482.29959929551,"apogee_km":483.77475174325,"semimajor_km":6861.1741755194,"source":"CELESTRAK","updated_at":"2026-09-21T09:00:34.058016Z"}}